Lapse_Rate
6.0 6.2 6.4 6.4 6.5 6.6 6.8 6.9 7.0 7.1 7.2 7.3 7.6 7.3 7.3 7.4 7.3 7.2 7.2 7.2 7.1 7.1 7.0 7.0 6.9 6.8 6.8 6.8 6.9 6.8 6.7 6.6 6.7 6.6 6.7 6.7 6.6 6.7 6.6 6.4 6.2 6.1 6.2
6.2 6.5 6.6 6.7 6.8 6.9 7.0 7.2 7.2 7.3 7.4 7.5 7.6 7.5 7.5 7.5 7.4 7.3 7.3 7.3 7.3 7.2 7.0 7.0 7.0 7.0 6.9 6.9 6.7 6.7 6.7 6.7 6.7 6.7 6.6 6.6 6.5 6.6 6.4 6.3 6.2 6.3 6.3
6.6 6.6 6.6 6.9 6.9 6.9 7.0 7.2 7.3 7.5 7.6 7.6 7.6 7.6 7.5 7.5 7.4 7.4 7.3 7.3 7.2 7.2 7.2 7.1 7.0 7.0 6.9 6.9 6.9 6.8 6.8 6.6 6.7 6.6 6.5 6.5 6.6 6.5 6.4 6.3 6.2 6.2 6.1
6.5 6.6 6.7 6.8 7.0 7.1 7.3 7.5 7.5 7.6 7.6 7.7 7.7 7.6 7.7 7.6 7.5 7.5 7.4 7.3 7.1 7.2 7.2 7.1 7.1 7.0 7.0 6.9 6.8 6.7 6.6 6.7 6.6 6.6 6.5 6.5 6.5 6.4 6.3 6.2 6.1 6.0 5.9
6.7 6.7 6.8 7.0 7.3 7.3 7.5 7.7 7.8 7.8 7.8 7.8 7.7 7.7 7.7 7.7 7.7 7.5 7.3 7.4 7.4 7.2 7.2 7.2 7.1 7.1 7.0 6.8 6.9 6.8 6.7 6.7 6.6 6.6 6.5 6.5 6.4 6.3 6.1 6.0 6.0 6.0 6.0
6.8 6.8 6.9 7.1 7.4 7.6 7.7 7.7 7.8 7.9 7.9 7.7 7.7 7.6 7.7 7.6 7.6 7.6 7.6 7.4 7.3 7.2 7.2 7.2 7.1 7.0 7.0 7.0 6.9 6.8 6.7 6.7 6.6 6.5 6.4 6.3 6.2 6.0 6.0 6.0 6.1 6.1 6.0
7.0 7.1 7.2 7.4 7.6 7.7 7.9 7.9 7.9 7.8 7.8 7.8 7.7 7.7 7.7 7.7 7.6 7.6 7.6 7.5 7.4 7.4 7.2 7.1 7.1 7.0 7.0 7.0 7.0 6.8 6.7 6.5 6.5 6.4 6.2 6.0 5.9 5.9 5.9 6.0 6.0 6.0 5.9
7.4 7.3 7.2 7.4 7.6 7.7 7.8 7.7 7.7 7.7 7.7 7.7 7.8 7.7 7.6 7.6 7.5 7.5 7.5 7.5 7.3 7.2 7.2 7.1 7.1 7.1 7.0 6.8 6.7 6.6 6.6 6.5 6.4 6.2 6.1 5.9 5.8 5.9 5.9 6.0 6.0 5.9 5.9
7.4 7.4 7.3 7.4 7.4 7.5 7.5 7.5 7.5 7.6 7.6 7.6 7.7 7.6 7.6 7.5 7.4 7.5 7.4 7.3 7.3 7.2 7.1 7.1 7.1 6.9 6.8 6.6 6.5 6.5 6.4 6.4 6.2 6.1 6.1 6.0 6.0 6.0 6.0 6.0 5.9 5.9 5.9
7.5 7.5 7.4 7.3 7.4 7.4 7.4 7.5 7.6 7.6 7.5 7.6 7.6 7.5 7.5 7.5 7.4 7.3 7.2 7.1 7.1 7.1 7.1 7.0 6.8 6.7 6.6 6.7 6.6 6.4 6.3 6.3 6.2 6.1 6.1 6.0 5.9 5.9 6.0 5.9 5.9 5.8 5.8
7.2 7.4 7.4 7.3 7.3 7.3 7.3 7.3 7.4 7.4 7.4 7.4 7.4 7.4 7.4 7.4 7.4 7.4 7.3 7.0 6.9 6.7 6.8 6.7 6.5 6.4 6.5 6.5 6.5 6.5 6.3 6.3 6.2 6.1 6.0 6.0 5.9 5.9 5.9 5.9 5.9 5.7 5.6
7.0 7.2 7.2 7.1 7.1 7.1 7.1 7.2 7.3 7.3 7.4 7.3 7.2 7.2 7.1 7.1 7.1 7.1 7.3 6.9 6.9 6.5 6.5 6.5 6.4 6.5 6.4 6.4 6.4 6.5 6.4 6.2 6.2 6.2 6.1 6.1 6.0 5.9 5.9 5.8 5.8 5.7 5.5
6.9 6.9 6.9 7.0 7.1 7.0 7.1 7.2 7.2 7.2 7.2 7.2 7.2 7.1 6.9 6.6 6.6 6.5 6.7 6.6 6.8 6.8 6.8 6.7 6.2 6.3 6.3 6.4 6.4 6.4 6.3 6.2 6.2 6.1 6.0 5.9 5.9 5.9 5.8 5.8 5.7 5.6 5.5
6.8 6.8 6.7 6.8 6.9 6.8 6.9 7.0 7.1 7.1 7.1 7.0 6.9 6.8 6.8 6.7 6.4 6.3 6.3 6.3 6.5 6.6 6.8 6.8 6.7 6.5 6.3 6.4 6.4 6.4 6.3 6.3 6.3 6.0 5.8 5.8 5.8 6.0 5.8 5.8 5.9 5.7 5.6
6.6 6.5 6.6 6.7 6.7 6.8 6.8 6.8 6.8 7.0 6.8 6.9 6.8 6.6 6.5 6.4 6.3 6.1 6.1 6.0 6.0 6.7 6.8 6.8 6.6 6.4 6.4 6.3 6.1 6.1 6.2 6.2 6.3 6.1 5.8 5.8 5.9 6.1 6.0 6.1 6.0 5.7 5.8
6.2 6.3 6.2 6.2 6.3 6.6 6.5 6.5 6.6 6.3 6.2 6.1 6.1 6.2 6.1 6.1 6.1 6.2 6.1 6.0 5.9 6.0 6.6 7.0 6.7 6.5 6.5 6.5 6.2 6.2 6.3 6.3 6.3 6.2 5.8 5.7 5.8 6.0 6.0 5.9 5.8 5.9 5.7
5.8 5.8 6.0 5.6 5.7 5.9 5.8 6.0 5.5 5.9 5.7 5.4 5.5 5.3 5.2 5.3 5.6 5.8 5.6 5.8 6.0 5.7 6.0 6.8 6.5 6.4 6.5 6.5 6.5 6.3 6.3 6.2 6.2 6.1 5.7 5.5 5.6 5.6 5.6 5.7 5.8 5.6 5.4
6.0 5.7 6.1 5.3 5.4 5.5 5.4 5.4 5.3 5.1 5.3 5.4 5.3 4.9 4.7 4.7 4.9 5.0 5.1 4.6 4.9 5.0 4.9 5.5 6.3 6.6 6.1 6.1 6.3 6.2 6.4 6.3 6.1 6.0 5.8 5.6 5.6 5.5 5.5 5.9 6.1 5.7 5.9
6.4 5.9 5.6 5.3 5.9 5.8 5.4 5.5 5.6 5.5 5.5 5.5 5.4 5.2 5.1 5.0 5.0 4.9 5.0 5.2 5.0 5.0 4.8 4.9 5.3 5.9 6.3 5.8 6.0 6.3 6.5 6.1 6.2 5.8 5.6 5.4 5.5 5.7 6.0 6.2 6.1 6.2 5.8
6.2 6.0 6.0 5.9 6.0 5.9 5.6 5.5 5.6 5.8 5.8 5.8 5.9 5.8 5.8 5.8 5.5 5.5 5.2 5.4 5.2 5.3 5.6 5.2 5.0 5.2 5.5 5.7 5.8 5.8 5.7 5.7 5.5 5.5 5.4 5.4 6.0 5.9 6.4 6.5 6.5 6.6 6.2
6.5 6.4 6.2 6.2 6.2 6.2 6.0 6.0 5.6 6.0 5.8 5.9 5.9 5.7 5.7 5.7 5.6 5.6 5.5 5.5 5.2 5.3 5.3 4.8 5.4 5.3 5.2 5.3 5.4 5.7 5.4 5.3 5.7 5.5 5.8 5.9 6.2 6.3 6.2 6.0 6.2 5.9 6.5
6.7 6.6 6.4 6.2 6.3 6.3 6.3 6.2 6.0 5.9 5.6 5.5 5.7 5.7 5.8 6.1 5.7 5.6 5.9 5.7 5.5 5.5 5.2 5.9 5.2 5.2 5.2 5.1 5.6 5.5 5.5 5.6 5.6 6.3 6.2 6.1 6.6 6.5 6.3 6.1 6.1 6.3 6.3
6.4 6.5 6.4 6.7 6.8 6.7 6.5 6.2 6.4 6.4 6.3 6.0 5.9 5.9 6.0 6.2 6.1 5.9 5.9 5.9 5.6 5.5 5.3 5.5 5.7 5.5 5.4 5.9 6.0 5.9 5.9 6.4 6.2 6.2 6.3 6.6 6.3 6.3 6.3 6.1 6.3 6.3 6.3
7.1 6.8 6.2 6.2 6.3 6.3 6.3 6.6 6.4 6.5 6.6 6.7 6.6 6.6 6.5 6.4 6.2 6.1 5.7 6.1 5.8 6.2 6.1 5.9 5.8 6.0 5.9 5.8 5.8 6.4 6.1 6.3 6.3 5.9 6.4 6.2 6.0 6.1 6.2 6.4 6.1 6.3 6.2
7.1 6.9 6.7 6.2 5.9 6.1 6.2 6.2 6.4 6.6 6.7 6.7 6.6 6.7 6.7 6.3 6.0 6.1 6.4 6.2 6.5 6.3 5.9 5.8 6.4 6.0 5.9 5.9 6.3 6.4 6.4 6.2 6.0 6.3 6.3 6.3 6.5 6.2 6.3 6.4 6.2 6.5 6.5
7.2 7.1 7.0 7.0 7.1 7.0 6.9 6.6 6.2 6.2 6.5 6.5 6.5 6.6 6.6 6.5 6.5 6.4 6.3 6.3 6.3 6.2 6.1 6.5 6.4 6.4 6.3 6.3 6.2 6.6 6.2 6.7 6.7 6.8 7.1 6.9 6.8 6.7 7.0 7.2 7.0 6.8 6.6
Wind_Speed
10 13 13 14 14 12 10 11 10 10 9 12 16 18 16 18 16 13 11 10 9 10 10 10 10 10 9 10 10 10 10 10 10 10 10 10 9 10 11 11 11 12 13
14 11 11 9 13 15 14 13 10 9 7 10 13 16 15 17 17 14 12 13 11 9 8 8 7 7 7 7 8 7 8 8 8 9 8 8 8 10 10 10 11 12 14
15 14 12 10 10 12 13 14 11 12 10 11 10 13 14 14 16 14 12 10 10 9 7 6 5 5 4 5 5 5 6 5 6 6 6 7 8 9 9 9 10 11 12
15 12 9 9 11 14 15 12 9 4 4 4 3 4 7 10 11 11 12 11 9 8 6 4 3 2 2 2 2 2 3 3 3 3 4 6 6 7 7 8 8 9 10
18 15 12 10 11 10 9 8 2 4 3 3 4 3 4 4 7 10 11 11 10 10 8 7 6 4 3 2 2 2 2 1 1 1 2 4 5 5 6 7 7 8 9
17 17 14 12 11 7 4 3 3 1 3 4 3 3 2 4 5 5 8 10 11 11 12 10 10 8 7 5 4 4 3 3 2 2 2 2 3 4 5 6 7 7 7
12 17 13 12 10 4 5 5 3 4 1 3 3 2 2 3 4 6 9 10 10 12 13 13 12 11 10 9 8 7 6 5 5 4 4 4 4 5 6 6 7 7 7
13 15 13 9 10 4 5 5 4 2 1 3 3 2 1 3 3 5 6 7 11 14 14 15 15 14 14 13 13 11 9 8 7 8 7 7 6 6 7 7 7 7 7
15 13 14 12 10 8 5 5 6 6 3 3 3 3 1 3 1 1 5 5 6 7 15 17 18 18 18 16 15 15 13 11 11 11 10 9 9 8 8 7 7 7 7
16 13 15 14 11 8 5 5 7 4 4 4 1 3 2 3 2 3 2 4 5 6 8 14 17 21 21 20 19 19 17 15 14 13 13 12 12 11 10 9 8 8 7
16 16 15 13 10 10 8 7 5 5 4 3 3 2 3 2 2 2 3 3 2 5 9 13 16 19 22 24 23 22 20 17 17 17 16 15 14 13 12 11 9 9 8
6 14 15 14 14 11 7 8 9 7 6 5 4 4 4 3 3 3 4 5 4 4 5 8 12 18 23 25 26 25 24 21 20 19 19 18 16 15 14 13 11 10 9
4 8 13 10 8 14 15 13 7 7 7 6 7 5 4 4 3 3 3 3 4 3 3 4 11 18 20 23 25 26 26 24 21 21 21 20 19 18 17 15 13 12 11
8 12 14 15 15 16 14 14 6 5 6 7 8 7 5 6 4 4 4 4 4 3 3 6 4 14 20 23 26 26 26 26 23 23 22 22 21 20 19 17 16 14 12
8 11 15 11 15 16 17 15 9 10 9 10 9 10 8 7 6 7 5 4 5 3 4 3 4 9 18 20 25 24 25 26 25 23 23 23 22 20 20 20 18 16 15
8 6 10 10 10 12 14 10 9 10 10 9 8 9 9 8 8 6 7 7 7 8 7 5 5 5 8 14 23 24 25 26 26 24 23 23 23 22 22 22 20 18 16
11 12 11 11 11 11 11 11 12 10 9 10 9 9 12 11 8 7 7 7 7 7 9 5 5 4 5 6 10 21 23 23 24 26 25 25 25 25 24 23 21 20 17
7 10 12 11 12 11 10 11 13 11 12 12 14 12 14 10 13 12 9 12 11 10 9 14 5 4 7 5 7 6 14 19 20 21 25 27 26 25 25 25 23 21 18
3 4 1 5 6 9 10 10 11 11 12 12 13 12 15 13 13 11 12 10 10 9 9 9 11 4 5 3 5 5 6 14 16 17 21 26 27 27 25 25 23 22 20
3 3 3 3 4 4 5 5 9 11 11 12 13 13 13 13 14 14 12 13 12 10 10 9 10 10 6 4 3 5 7 4 7 12 19 21 22 25 26 26 26 24 23
5 5 4 3 3 4 5 6 5 6 6 11 11 12 13 15 17 17 10 12 12 10 9 9 10 10 8 4 7 3 7 7 4 5 6 8 12 16 22 28 24 24 23
5 5 6 5 4 2 7 7 7 5 5 6 8 7 7 11 14 17 17 18 13 14 14 11 11 12 14 10 7 7 5 3 3 8 5 7 11 9 15 19 22 25 25
4 5 4 5 5 5 9 9 7 4 5 4 5 6 7 6 11 9 9 13 16 18 15 10 12 13 13 11 9 6 8 7 8 3 4 3 6 9 14 17 24 28 27
3 3 3 3 3 3 8 9 9 4 5 5 4 6 6 7 5 9 10 5 8 10 9 7 9 12 12 8 8 10 9 5 1 2 3 4 4 5 6 15 23 28 28
2 2 3 3 3 2 4 7 7 5 5 6 5 6 7 6 11 11 6 10 8 7 9 17 18 14 21 17 6 3 3 3 3 4 7 2 3 2 3 6 15 25 27
3 3 4 4 5 4 9 9 9 4 5 5 6 6 6 8 11 12 7 8 9 10 10 12 11 9 13 14 15 9 5 7 4 2 6 6 4 3 3 2 5 12 18
Wind_Direction
152 151 152 151 153 150 148 143 130 100 94 92 100 122 116 115 111 101 100 120 114 109 104 100 95 90 89 85 83 80 77 75 75 66 59 57 54 51 46 41 38 38 31
157 155 154 155 159 151 144 137 130 119 84 87 83 113 127 129 123 115 107 95 85 87 100 98 101 99 93 89 83 84 82 75 73 65 57 54 49 46 39 37 32 35 31
127 127 125 117 134 139 133 126 117 110 101 93 86 96 122 136 138 138 132 125 115 95 94 102 96 98 101 101 101 95 85 79 71 66 53 48 42 38 33 29 29 24 24
141 136 126 124 124 124 124 120 119 97 105 113 110 99 103 121 152 157 160 158 154 149 134 111 120 127 123 130 109 113 118 88 75 60 44 43 36 29 24 19 19 13 17
154 147 144 147 139 131 132 136 112 129 134 126 131 130 128 125 153 160 178 185 182 183 183 186 189 191 182 183 185 200 181 160 109 31 22 26 21 11 7 4 1 3 5
157 151 151 152 151 135 132 134 133 120 150 156 135 138 172 191 191 187 187 178 183 191 199 202 208 214 220 216 217 232 236 234 239 280 329 337 344 346 340 343 348 352 357
149 152 156 156 161 142 161 156 127 129 69 138 93 2 311 240 221 217 210 207 213 209 204 215 220 227 229 231 230 236 241 245 251 257 268 279 290 308 315 325 333 340 342
153 157 159 164 169 148 158 157 148 122 138 180 141 116 266 313 274 235 219 215 221 221 222 221 224 228 232 234 232 234 238 248 252 254 257 263 269 284 296 306 318 327 331
168 166 170 171 169 164 175 173 164 158 176 229 204 153 108 241 305 322 240 230 225 219 230 231 230 234 234 233 234 231 235 242 248 252 255 259 262 265 277 290 305 311 316
173 175 178 179 181 179 174 180 178 163 147 190 253 216 189 155 190 322 293 250 238 235 229 235 234 236 236 235 234 235 237 236 244 251 255 256 257 256 268 277 288 296 303
181 184 184 181 182 188 189 186 175 183 177 162 178 165 216 224 198 158 271 292 297 245 240 234 232 237 238 237 236 235 234 228 238 250 253 254 256 255 259 267 276 285 290
183 189 193 190 192 192 188 195 193 191 194 193 192 196 178 176 207 189 224 259 239 268 240 238 232 237 240 238 236 235 232 227 238 246 249 251 255 255 254 261 265 274 278
187 198 194 193 194 203 203 195 193 199 196 194 196 211 200 212 181 185 175 247 248 277 275 243 234 234 240 240 237 233 236 231 235 243 247 251 254 253 250 253 258 262 263
202 203 202 197 202 206 203 202 197 207 198 212 208 207 206 216 195 193 193 183 278 267 267 239 248 233 237 236 238 235 233 230 229 238 245 251 251 252 247 249 253 256 258
204 203 202 210 214 208 202 205 211 214 207 212 218 220 217 220 212 209 192 182 198 274 276 264 248 239 239 237 237 232 230 231 228 235 242 246 248 253 247 244 245 247 249
207 202 208 206 206 211 213 210 213 219 208 216 221 219 221 224 216 213 219 214 203 223 257 201 237 235 240 236 238 230 231 234 232 232 235 239 244 246 243 242 246 247 251
204 209 211 211 213 214 214 209 218 219 210 222 219 216 225 223 222 222 215 221 225 215 237 266 234 226 231 227 232 230 231 229 234 230 230 235 238 242 244 243 243 244 247
216 217 219 217 222 221 213 210 223 222 215 220 226 222 232 233 232 230 223 222 220 217 222 247 242 237 220 212 227 215 225 229 230 231 230 232 235 238 240 241 241 241 242
41 31 337 232 220 224 229 221 224 229 228 236 237 230 234 231 232 232 228 232 230 231 221 234 247 223 229 203 223 230 218 234 237 234 231 231 236 241 242 240 240 242 245
26 39 46 7 3 306 258 253 234 229 232 234 235 236 238 239 235 240 235 233 237 229 222 229 243 249 234 217 199 230 243 218 241 222 228 228 231 232 232 235 234 233 234
14 11 12 18 353 66 35 6 356 331 299 249 235 234 234 234 234 232 231 236 235 235 234 231 240 244 235 211 224 198 238 256 238 218 222 222 221 224 233 231 232 230 231
18 12 13 2 13 21 45 31 9 331 330 326 333 315 267 252 244 247 241 244 231 231 232 231 239 241 243 237 230 215 217 183 269 204 207 232 208 227 231 227 224 227 226
21 18 12 5 358 345 12 0 351 331 321 315 311 312 319 329 346 322 292 266 252 252 249 250 249 247 249 241 227 207 216 219 238 167 176 252 182 233 221 226 224 228 230
35 9 4 1 343 350 347 336 355 333 318 313 317 318 315 322 340 346 321 323 334 323 312 273 252 264 264 261 221 233 230 220 51 156 168 245 168 232 214 215 224 227 227
12 356 344 333 315 311 325 344 0 346 334 337 358 350 336 338 334 351 335 321 321 305 303 309 311 304 298 289 251 130 191 181 222 227 196 199 187 219 209 222 218 226 223
17 359 350 357 7 17 32 27 19 356 346 345 338 335 334 327 340 339 335 327 319 316 318 311 305 302 283 275 255 219 211 218 212 251 198 189 164 157 251 216 205 210 208